Tracking 18840 objects as of 18-November-2017
HD Live streaming from Space Station
objects crossing your sky now

CICERO 6

Track CICERO 6 now!
10-day predictions


NORAD ID: 42793
Int'l Code: 2017-036AE
Perigee: 500.1 km
Apogee: 517.1 km
Inclination: 97.4 °
Period: 94.6 minutes
Semi major axis: 6879 km
RCS: Unknown
Launch date: June 23, 2017
Source: United States (US)
Launch site: SRIHARIKOTA (SRI)
aabbcc
Your satellite tracking list
Your tracking list is empty




NASA's NSSDC Master Catalog

Two Line Element Set (TLE):
1 42793U 17036AE  17321.75006482 +.00001725 +00000-0 +79759-4 0  9994
2 42793 097.4315 019.7703 0012339 098.8170 261.4464 15.21452775022442
Source of the keplerian elements: AFSPC